Starlink 33781

operational
NORAD ID: 63826 Int'l Des: 2025-092 Owner: SPXS Country: US Constellation: starlink
LEOCIRCULAR

Über Starlink 33781

Beschreibung wird geladen...

Live-Position

3D-Globus wird geladen...

Nächste Überflüge

Höhenverlauf

Altitude vs Time

uPlot chart will show altitude changes over time

Zweizeiliger Elementsatz

1 63826U 25092Y 25303.65245739 .00043373 00000-0 15754-2 0 9991
2 63826 43.0002 187.2284 0002327 288.1240 71.9358 15.27600328 28778
Epoch: 30. Okt. 2025 • Age: 19 hours

Aktueller Status

Höhe 481.6 km
Geschwindigkeit 7.63 km/s
Subsatellitenpunkt 6.95°N, 7.73°W
Startdatum 4. Mai 2025
Alter 0.4 years
Typ internet

Technische Details

Klassifizierung Payload
Masse 575.00 kg
Trockenmasse 530.00 kg
Gesamtmasse 575.00 kg
Länge 0.30 m
Durchmesser 4.10 m
Spannweite 29.00 m
Form Box + pan
Hersteller SPXS
Bus-Typ Starlink V2MO
Phasenstatus In Orbit
Besitzer/Staat SPXS/US

Große Konstellationen

Loading constellations...